AUA0176 EDDH-LOWW

Flight info

Callsign AUA0176
Flight time N/A
Altitude 39000
Route AMLUH2G/33 AMLUH M852 DENIX DCT ZUCKA DCT OMELO DCT EVIKU DCT BITSI DCT MIKOV MIKOV8W
Aircraft B772/H-SDE2E3FGHIJ5LORVWXY/LB1D1

Departure

Time 2026-04-24 19:35
Airport Hamburg Helmut Schmidt Airport (EDDH)

Arrival

Time N/A
Airport Vienna International Airport (LOWW)
Time Latitude Longitude Altitude Speed Heading
2026-04-24 18:56 53.63294 10.00035 55 ft 0 kts 320°
2026-04-24 19:20 53.63293 10.00036 55 ft 1 kts 320°
2026-04-24 19:20 53.63282 10.00054 47 ft 3 kts 287°
2026-04-24 19:21 53.63283 10.00080 47 ft 3 kts 235°
2026-04-24 19:21 53.63296 10.00106 47 ft 3 kts 227°
2026-04-24 19:21 53.63300 10.00113 47 ft 3 kts 229°
2026-04-24 19:25 53.63291 10.00102 51 ft 7 kts 215°
2026-04-24 19:25 53.63213 10.00026 49 ft 15 kts 226°
2026-04-24 19:25 53.63147 9.99899 51 ft 15 kts 227°
2026-04-24 19:26 53.63057 9.99900 50 ft 10 kts 150°
2026-04-24 19:26 53.63001 9.99951 40 ft 5 kts 152°
2026-04-24 19:26 53.62970 9.99978 48 ft 5 kts 151°
2026-04-24 19:26 53.62938 10.00007 48 ft 5 kts 152°
2026-04-24 19:27 53.62906 10.00034 53 ft 5 kts 161°
2026-04-24 19:27 53.62896 10.00037 55 ft 0 kts 175°
2026-04-24 19:28 53.62895 10.00037 55 ft 1 kts 175°
2026-04-24 19:28 53.62857 9.99997 48 ft 12 kts 239°
2026-04-24 19:28 53.62845 9.99964 56 ft 0 kts 241°
2026-04-24 19:31 53.62831 9.99920 51 ft 10 kts 242°
2026-04-24 19:32 53.62808 9.99805 53 ft 10 kts 285°
2026-04-24 19:32 53.62841 9.99763 51 ft 0 kts 332°
2026-04-24 19:34 53.62848 9.99756 51 ft 10 kts 332°
2026-04-24 19:34 53.63207 9.99444 49 ft 117 kts 333°
2026-04-24 19:35 53.64085 9.98622 782 ft 150 kts 327°
2026-04-24 19:35 53.64965 9.97756 2457 ft 146 kts 331°
2026-04-24 19:35 53.65909 9.96917 3396 ft 165 kts 334°
2026-04-24 19:35 53.67020 9.96017 4019 ft 185 kts 334°
2026-04-24 19:36 53.68226 9.95056 4527 ft 194 kts 340°
2026-04-24 19:36 53.69616 9.94722 4983 ft 218 kts 356°
2026-04-24 19:36 53.71252 9.94702 4973 ft 243 kts 357°
2026-04-24 19:36 53.72894 9.95205 4978 ft 254 kts 21°
2026-04-24 19:37 53.74299 9.97132 4982 ft 267 kts 49°
2026-04-24 19:37 53.75063 10.00038 4971 ft 276 kts 74°
2026-04-24 19:37 53.74932 10.03298 4961 ft 285 kts 109°
2026-04-24 19:37 53.73920 10.06177 4980 ft 289 kts 122°
2026-04-24 19:38 53.72792 10.09052 4980 ft 294 kts 122°
2026-04-24 19:38 53.71634 10.11893 5052 ft 294 kts 121°
2026-04-24 19:38 53.70554 10.14785 5999 ft 295 kts 119°
2026-04-24 19:38 53.69504 10.17758 7151 ft 294 kts 120°
2026-04-24 19:39 53.68116 10.20351 7967 ft 306 kts 147°
2026-04-24 19:39 53.66152 10.21749 8885 ft 308 kts 166°
2026-04-24 19:39 53.64051 10.22709 9705 ft 315 kts 167°
2026-04-24 19:39 53.61908 10.23658 10152 ft 320 kts 167°
2026-04-24 19:40 53.59740 10.24619 10136 ft 323 kts 167°
2026-04-24 19:40 53.57569 10.25592 10134 ft 321 kts 167°
2026-04-24 19:40 53.55426 10.26563 10118 ft 319 kts 167°
2026-04-24 19:40 53.53309 10.27528 10126 ft 317 kts 166°
2026-04-24 19:41 53.51156 10.28514 10135 ft 316 kts 166°
2026-04-24 19:41 53.49062 10.29474 10139 ft 316 kts 166°
2026-04-24 19:41 53.46917 10.30457 10142 ft 316 kts 166°
2026-04-24 19:41 53.44818 10.31417 10147 ft 316 kts 166°
2026-04-24 19:42 53.42657 10.32404 10273 ft 333 kts 166°
2026-04-24 19:42 53.40313 10.33457 10586 ft 362 kts 166°
2026-04-24 19:42 53.37850 10.34560 11348 ft 374 kts 167°
2026-04-24 19:42 53.35296 10.35703 12355 ft 379 kts 167°
2026-04-24 19:43 53.32737 10.36850 13495 ft 381 kts 167°
2026-04-24 19:43 53.30165 10.38001 14527 ft 384 kts 167°
2026-04-24 19:43 53.27574 10.39159 15491 ft 387 kts 167°
2026-04-24 19:43 53.24960 10.40327 16477 ft 391 kts 167°
2026-04-24 19:44 53.22319 10.41505 17387 ft 395 kts 168°
2026-04-24 19:44 53.19637 10.42701 18285 ft 400 kts 168°
2026-04-24 19:44 53.17128 10.43818 19013 ft 404 kts 168°
2026-04-24 19:44 53.14387 10.45034 19783 ft 407 kts 168°
2026-04-24 19:45 53.11617 10.46154 20545 ft 409 kts 172°
2026-04-24 19:45 53.08840 10.47047 21270 ft 412 kts 173°
2026-04-24 19:45 53.06012 10.47913 22006 ft 416 kts 173°
2026-04-24 19:45 53.03149 10.48778 22736 ft 419 kts 173°
2026-04-24 19:46 53.00263 10.49653 23450 ft 423 kts 173°
2026-04-24 19:46 52.97356 10.50540 24043 ft 427 kts 173°
2026-04-24 19:46 52.94618 10.51377 24334 ft 427 kts 174°
2026-04-24 19:46 52.91684 10.52275 24711 ft 430 kts 174°
2026-04-24 19:47 52.89201 10.53037 25044 ft 434 kts 174°
2026-04-24 19:47 52.86222 10.53957 25440 ft 437 kts 174°
2026-04-24 19:47 52.83218 10.54893 25837 ft 440 kts 174°
2026-04-24 19:47 52.80233 10.55833 26230 ft 443 kts 174°
2026-04-24 19:48 52.77203 10.56797 26622 ft 445 kts 174°
2026-04-24 19:48 52.74159 10.57774 27036 ft 447 kts 174°
2026-04-24 19:48 52.68027 10.59774 27863 ft 451 kts 174°
2026-04-24 19:49 52.61825 10.61830 28724 ft 456 kts 174°
2026-04-24 19:49 52.55554 10.63943 29647 ft 462 kts 174°
2026-04-24 19:50 52.46037 10.67228 30879 ft 471 kts 174°
2026-04-24 19:50 52.42821 10.68350 31269 ft 474 kts 174°
2026-04-24 19:51 52.36337 10.70609 32093 ft 479 kts 174°
2026-04-24 19:51 52.33065 10.71744 32511 ft 481 kts 174°
2026-04-24 19:52 52.26484 10.74018 33329 ft 484 kts 174°
2026-04-24 19:52 52.23170 10.75158 33764 ft 485 kts 174°
2026-04-24 19:52 52.19855 10.76294 34191 ft 486 kts 174°
2026-04-24 19:52 52.16527 10.77431 34571 ft 487 kts 173°
2026-04-24 19:53 52.13257 10.78541 34949 ft 487 kts 173°
2026-04-24 19:53 52.09932 10.79389 35167 ft 482 kts 181°
2026-04-24 19:54 51.99896 10.80272 35143 ft 485 kts 179°
2026-04-24 19:54 51.93215 10.81960 35142 ft 487 kts 175°
2026-04-24 19:55 51.87658 10.83679 35146 ft 488 kts 174°
2026-04-24 19:55 51.79840 10.86052 35143 ft 488 kts 175°
2026-04-24 19:56 51.73162 10.88051 35122 ft 487 kts 172°
2026-04-24 19:56 51.70003 10.90019 35130 ft 500 kts 154°
2026-04-24 19:56 51.67232 10.93476 35134 ft 511 kts 137°
2026-04-24 19:56 51.65085 10.98088 35134 ft 519 kts 120°
2026-04-24 19:57 51.63742 11.03134 35198 ft 522 kts 112°
2026-04-24 19:57 51.62429 11.08606 35469 ft 524 kts 112°
2026-04-24 19:57 51.61120 11.14069 35900 ft 522 kts 112°
2026-04-24 19:57 51.59798 11.19502 36342 ft 521 kts 112°
2026-04-24 19:58 51.58460 11.24897 36781 ft 519 kts 113°
2026-04-24 19:58 51.57100 11.30285 37270 ft 516 kts 113°
2026-04-24 19:58 51.55741 11.35604 37749 ft 514 kts 113°
2026-04-24 19:58 51.54379 11.40898 38203 ft 512 kts 113°
2026-04-24 19:59 51.53015 11.46176 38610 ft 511 kts 113°
2026-04-24 19:59 51.51650 11.51450 38949 ft 510 kts 113°
2026-04-24 19:59 51.50301 11.56651 39078 ft 513 kts 113°
2026-04-24 20:00 51.47537 11.67288 39129 ft 517 kts 113°
2026-04-24 20:00 51.44765 11.77918 39115 ft 510 kts 114°
2026-04-24 20:01 51.42030 11.88357 39138 ft 511 kts 114°
2026-04-24 20:01 51.39260 11.98878 39138 ft 512 kts 114°
2026-04-24 20:02 51.37013 12.07374 39133 ft 514 kts 114°
2026-04-24 20:02 51.33743 12.19690 39134 ft 515 kts 114°
2026-04-24 20:03 51.30943 12.30182 39132 ft 516 kts 114°
2026-04-24 20:03 51.28114 12.40733 39131 ft 516 kts 114°
2026-04-24 20:04 51.25276 12.51271 39136 ft 517 kts 114°
2026-04-24 20:04 51.22423 12.61814 39127 ft 517 kts 114°
2026-04-24 20:05 51.19562 12.72340 39124 ft 517 kts 114°
2026-04-24 20:05 51.16697 12.82837 39124 ft 517 kts 114°
2026-04-24 20:06 51.13819 12.93329 39124 ft 517 kts 114°
2026-04-24 20:06 51.11015 13.03506 39114 ft 517 kts 114°
2026-04-24 20:07 51.09077 13.10515 39117 ft 517 kts 114°
2026-04-24 20:07 51.05212 13.24431 39096 ft 516 kts 114°
2026-04-24 20:08 51.02793 13.33100 39108 ft 516 kts 114°
2026-04-24 20:08 50.99879 13.43499 39111 ft 516 kts 114°
2026-04-24 20:09 50.96953 13.53897 39106 ft 516 kts 114°
2026-04-24 20:09 50.94021 13.64273 39106 ft 515 kts 114°
2026-04-24 20:10 50.91079 13.74639 39104 ft 515 kts 114°
2026-04-24 20:10 50.88125 13.85010 39104 ft 515 kts 114°
2026-04-24 20:11 50.85034 13.95236 39103 ft 515 kts 121°
2026-04-24 20:11 50.80986 14.04020 39102 ft 512 kts 133°
2026-04-24 20:12 50.75857 14.11789 39097 ft 510 kts 141°
2026-04-24 20:12 50.70561 14.19226 39077 ft 510 kts 140°
2026-04-24 20:13 50.65278 14.26730 39092 ft 510 kts 140°
2026-04-24 20:13 50.60024 14.34256 39092 ft 510 kts 140°
2026-04-24 20:14 50.54795 14.41731 39101 ft 511 kts 140°
2026-04-24 20:14 50.49491 14.49283 39091 ft 512 kts 140°
2026-04-24 20:15 50.44219 14.56814 39095 ft 513 kts 138°
2026-04-24 20:15 50.39081 14.64577 39083 ft 513 kts 137°
2026-04-24 20:16 50.33981 14.72402 39099 ft 513 kts 137°
2026-04-24 20:16 50.28868 14.80169 39096 ft 513 kts 137°
2026-04-24 20:17 50.23768 14.87845 39100 ft 512 kts 137°
2026-04-24 20:17 50.16043 14.99406 39096 ft 512 kts 137°
2026-04-24 20:18 50.11014 15.06908 39089 ft 512 kts 137°
2026-04-24 20:18 50.05866 15.14564 39089 ft 511 kts 137°
2026-04-24 20:19 50.00713 15.22205 39099 ft 511 kts 137°
2026-04-24 20:19 49.95573 15.29802 39092 ft 512 kts 137°
2026-04-24 20:20 49.90437 15.37371 39090 ft 512 kts 137°
2026-04-24 20:20 49.85254 15.44985 39089 ft 512 kts 137°
2026-04-24 20:21 49.80068 15.52579 39082 ft 512 kts 137°
2026-04-24 20:21 49.74910 15.60109 39090 ft 512 kts 137°
2026-04-24 20:22 49.69720 15.67664 39090 ft 512 kts 137°
2026-04-24 20:22 49.64538 15.75184 39053 ft 508 kts 137°
2026-04-24 20:23 49.61977 15.78892 38704 ft 501 kts 137°
2026-04-24 20:23 49.59430 15.82575 37791 ft 504 kts 137°
2026-04-24 20:23 49.56862 15.86281 36756 ft 509 kts 137°
2026-04-24 20:23 49.54268 15.90019 35750 ft 513 kts 137°
2026-04-24 20:24 49.51658 15.93775 34812 ft 515 kts 137°
2026-04-24 20:24 49.49037 15.97542 33842 ft 517 kts 137°
2026-04-24 20:24 49.46538 16.01128 32867 ft 518 kts 137°
2026-04-24 20:24 49.43909 16.04897 32108 ft 513 kts 137°
2026-04-24 20:25 49.41288 16.08647 31519 ft 505 kts 137°
2026-04-24 20:25 49.38763 16.12257 30956 ft 498 kts 137°
2026-04-24 20:25 49.36241 16.15855 30341 ft 493 kts 137°
2026-04-24 20:25 49.33735 16.19401 29609 ft 488 kts 139°
2026-04-24 20:26 49.31082 16.22626 28908 ft 483 kts 145°
2026-04-24 20:26 49.28276 16.25434 28383 ft 482 kts 150°
2026-04-24 20:26 49.25313 16.27816 28057 ft 478 kts 155°
2026-04-24 20:26 49.22332 16.29989 27845 ft 471 kts 156°
2026-04-24 20:27 49.19423 16.32100 27289 ft 455 kts 156°
2026-04-24 20:27 49.16584 16.34166 26288 ft 450 kts 155°
2026-04-24 20:27 49.13727 16.36255 25513 ft 459 kts 155°
2026-04-24 20:27 49.10802 16.38211 25138 ft 458 kts 159°
2026-04-24 20:28 49.07845 16.39963 24911 ft 453 kts 161°
2026-04-24 20:28 49.04901 16.41639 24673 ft 449 kts 161°
2026-04-24 20:28 49.01976 16.43293 24405 ft 447 kts 161°
2026-04-24 20:28 48.99090 16.44936 24143 ft 444 kts 160°
2026-04-24 20:29 48.97176 16.46035 23972 ft 443 kts 160°
2026-04-24 20:29 48.93332 16.48259 23614 ft 441 kts 160°
2026-04-24 20:29 48.90467 16.49924 23288 ft 439 kts 160°
2026-04-24 20:29 48.87620 16.51580 22975 ft 438 kts 160°
2026-04-24 20:30 48.84808 16.53216 22700 ft 436 kts 160°
2026-04-24 20:30 48.81976 16.54861 22407 ft 434 kts 160°
2026-04-24 20:30 48.79177 16.56484 22165 ft 424 kts 160°
2026-04-24 20:30 48.76454 16.58061 21880 ft 414 kts 160°
2026-04-24 20:31 48.73792 16.59600 21641 ft 404 kts 160°
2026-04-24 20:31 48.71198 16.61098 21336 ft 396 kts 160°
2026-04-24 20:31 48.68630 16.62579 20908 ft 393 kts 160°
2026-04-24 20:31 48.66083 16.64047 20414 ft 392 kts 160°
2026-04-24 20:32 48.63527 16.65518 19935 ft 391 kts 160°
2026-04-24 20:32 48.61022 16.66959 19510 ft 389 kts 160°
2026-04-24 20:32 48.58498 16.68371 19053 ft 382 kts 164°
2026-04-24 20:32 48.55882 16.68932 18489 ft 379 kts 186°
2026-04-24 20:33 48.53280 16.68476 17891 ft 376 kts 190°
2026-04-24 20:33 48.50682 16.67994 17398 ft 375 kts 189°
2026-04-24 20:33 48.48100 16.67572 17009 ft 371 kts 188°
2026-04-24 20:33 48.45544 16.67179 16592 ft 368 kts 188°
2026-04-24 20:34 48.42996 16.66793 16152 ft 366 kts 188°
2026-04-24 20:34 48.40474 16.66410 15715 ft 365 kts 188°
2026-04-24 20:34 48.37951 16.66027 15310 ft 362 kts 188°
2026-04-24 20:34 48.35473 16.65650 15094 ft 354 kts 188°
2026-04-24 20:35 48.33056 16.65284 14886 ft 345 kts 188°
2026-04-24 20:35 48.30694 16.64925 14685 ft 337 kts 188°
2026-04-24 20:35 48.28377 16.64573 14400 ft 331 kts 188°
2026-04-24 20:35 48.26093 16.64225 14047 ft 330 kts 188°
2026-04-24 20:36 48.23809 16.63878 13633 ft 329 kts 188°
2026-04-24 20:36 48.21539 16.63597 13195 ft 324 kts 181°
2026-04-24 20:36 48.19360 16.64304 12642 ft 330 kts 154°
2026-04-24 20:36 48.17526 16.66324 12262 ft 326 kts 131°
2026-04-24 20:37 48.16281 16.69101 11927 ft 319 kts 114°
2026-04-24 20:37 48.15315 16.72070 11555 ft 317 kts 112°
2026-04-24 20:37 48.14373 16.75053 11185 ft 316 kts 113°
2026-04-24 20:37 48.13422 16.78010 10853 ft 314 kts 113°
2026-04-24 20:38 48.12473 16.80901 10752 ft 303 kts 114°
2026-04-24 20:38 48.11553 16.83675 10671 ft 292 kts 114°
2026-04-24 20:38 48.10661 16.86364 10550 ft 284 kts 114°
2026-04-24 20:38 48.09794 16.88973 10367 ft 278 kts 114°
2026-04-24 20:39 48.08938 16.91547 10150 ft 276 kts 114°
2026-04-24 20:39 48.08084 16.94111 9848 ft 275 kts 114°
2026-04-24 20:39 48.07229 16.96676 9526 ft 275 kts 114°
2026-04-24 20:39 48.06375 16.99235 9220 ft 275 kts 114°
2026-04-24 20:40 48.05528 17.01614 8895 ft 272 kts 124°
2026-04-24 20:40 48.04126 17.03506 8467 ft 275 kts 155°
2026-04-24 20:40 48.02309 17.04179 8179 ft 264 kts 185°
2026-04-24 20:40 48.00590 17.03537 7843 ft 252 kts 214°
2026-04-24 20:41 47.99300 17.01936 7459 ft 244 kts 232°
2026-04-24 20:41 47.98172 17.00053 7128 ft 242 kts 234°
2026-04-24 20:41 47.97126 16.98125 6781 ft 234 kts 244°
2026-04-24 20:41 47.96710 16.95865 6367 ft 224 kts 276°
2026-04-24 20:42 47.97188 16.93733 6012 ft 217 kts 307°
2026-04-24 20:42 47.98290 16.92228 5638 ft 215 kts 323°
2026-04-24 20:42 47.99506 16.90925 5266 ft 212 kts 321°
2026-04-24 20:42 48.00431 16.89181 4806 ft 217 kts 303°
2026-04-24 20:43 48.01192 16.87232 4476 ft 217 kts 301°
2026-04-24 20:43 48.01896 16.85226 4118 ft 218 kts 299°
2026-04-24 20:43 48.02562 16.83215 3815 ft 218 kts 298°
2026-04-24 20:43 48.03214 16.81214 3736 ft 206 kts 298°
2026-04-24 20:44 48.03814 16.79369 3650 ft 192 kts 298°
2026-04-24 20:44 48.04379 16.77632 3476 ft 179 kts 299°
2026-04-24 20:44 48.04917 16.75983 3280 ft 176 kts 299°
2026-04-24 20:44 48.05435 16.74391 3040 ft 165 kts 299°
2026-04-24 20:45 48.05923 16.72892 2812 ft 156 kts 299°
2026-04-24 20:45 48.06396 16.71442 2644 ft 155 kts 299°
2026-04-24 20:45 48.06865 16.69999 2428 ft 153 kts 299°
2026-04-24 20:45 48.07308 16.68639 2214 ft 135 kts 299°
2026-04-24 20:46 48.07694 16.67448 2052 ft 124 kts 299°
2026-04-24 20:46 48.08066 16.66308 1887 ft 122 kts 299°
2026-04-24 20:46 48.08436 16.65172 1734 ft 122 kts 299°
2026-04-24 20:46 48.08809 16.64002 1562 ft 125 kts 298°
2026-04-24 20:47 48.09182 16.62829 1381 ft 124 kts 299°
2026-04-24 20:47 48.09576 16.61679 1226 ft 125 kts 298°
2026-04-24 20:47 48.09941 16.60492 1086 ft 125 kts 296°
2026-04-24 20:47 48.10330 16.59322 925 ft 125 kts 295°
2026-04-24 20:48 48.10713 16.58146 761 ft 127 kts 295°
2026-04-24 20:48 48.11111 16.56933 643 ft 128 kts 295°
2026-04-24 20:48 48.11350 16.56186 627 ft 109 kts 294°